CYGFM05 (41884 NORAD) Tracking and Keplerian Element Data

This shows tracking and keplerian element data for the satellite.

Feedback or suggestion? Click here.




ElementValue
Catalog41884
NameCYGFM05
Epoch Orbit41466
Epoch Day159.92761327
Epoch Year2024
RAAN359.7032
Inclination34.9537
Eccentricity0.0010856
Argument of Perigee112.386
Mean Anonmoly247.8006
Mean Motion15.268324
Decay Rate0.00014557
L11 41884U 16078A 24159.92761327 .00014557 00000+0 53797-3 0 9990
L22 41884 34.9537 359.7032 0010856 112.3860 247.8006 15.26832400414667



Live tracking and technical data element details for CYGFM05 (NORAD 41884). CYGFM05 can be tracked NOW for your location showing map with azimuth and elevation plus other details from your city location.







IsCatalogInMostPopularTable: catalog: 41884, numindb: 603
Update: records affected: 1



GetName: 41884 CYGFM05

Hit Count: updated at: Tue, 18 Jun 2024 00:25:26 GMT